Weather Roundup
Issued by NWS Chicago, IL

Home | Current Version | Previous Version | Graphics & Text | Print | Product List | Glossary On
Versions: 1 2 3 4 5 6 7 8 9 10 11 12 13 14 15 16 17 18 19 20 21 22 23 24 25 26 27 28 29 30 31 32 33 34 35 36 37 38 39 40 41 42 43 44 45 46 47 48 49 50
000
NZUS59 KLOT 270308
HRRLOT

CHICAGO AREA WEATHER ROUNDUP
NATIONAL WEATHER SERVICE CHICAGO/ROMEOVILLE IL
1000 PM CDT THU APR 26 2018

NOTE: "FAIR" INDICATES FEW OR NO CLOUDS BELOW 12,000 FEET WITH NO
SIGNIFICANT WEATHER AND/OR OBSTRUCTIONS TO VISIBILITY.

* THESE STATIONS ARE NOT UNDER NWS QUALITY CONTROL. THEY ALSO MAY NOT
  REPORT WEATHER SUCH AS PRECIPITATION OR FOG.

ILZ005-006-012>014-019>023-270400-
NORTHEAST ILLINOIS

CITY           SKY/WX    TMP DP  RH WIND       PRES   REMARKS
OHARE          MOCLDY    55  29  36 S6        29.82S
MIDWAY           N/A     58  29  33 SE7       29.83F
AURORA           N/A     52  32  46 S7        29.81F
LANSING*         N/A     51  31  48 SE3       29.85S
JOLIET*          N/A     50  41  72 CALM      29.84S
WAUKEGAN         N/A     48  29  47 CALM      29.80F
DUPAGE AIRPORT   N/A     53  34  48 S7        29.81F
WHEELING         N/A     50  29  44 S5        29.83F
KANKAKEE*        N/A     49  36  60 S3        29.86S
MORRIS*          N/A     54  31  42 S6        29.82F
LEWIS AIRPORT*   N/A     54  33  45 S7        29.83F
NORTHERLY ISL    N/A     47  37  68 SE2         N/A
$$

WIZ051-052-058>065-066-070>072-270400-
SOUTHEAST WISCONSIN

CITY           SKY/WX    TMP DP  RH WIND       PRES   REMARKS
MILWAUKEE      CLOUDY    52  28  39 S5        29.79F
KENOSHA*         N/A     50  28  42 S8        29.80F
RACINE*          N/A     51  27  39 S12       29.81F
BURLINGTON       N/A     52  32  46 SW5       29.79S
WAUKESHA         N/A     54  28  37 S6        29.79S
WEST BEND        N/A     54  30  40 CALM      29.77F
$$

INZ001>003-010>013-019-020-270400-
NORTHWEST INDIANA

CITY           SKY/WX    TMP DP  RH WIND       PRES   REMARKS
GARY*          MOCLDY    55  18  22 SE8       29.85F
MICHIGAN CITY* NOT AVBL
RENSSELAER*    NOT AVBL
VALPARAISO       N/A     50  22  33 CALM      29.86F
$$

LMZ740>746-270400-
SOUTHERN LAKE MICHIGAN

STATION/POSITION TIME  SKY/WX   TEMP WIND        PRES    VSBY
                                AIR  DIR/SP/G
                 (UTC)          (F)  (DEG/KT/KT) (MB)    (MI)
HARRISON CRIB    0240            51  190/ 10/ 10   N/A
BURNHAM HARBOR   0300            47  120/  1/  6   N/A
CALUMET HARBOR   0248            57  160/  6/  9 1009.9F
BURNS HARBOR     0240            56  160/  4/  6 1011.2F
MICHIGAN CITY    0240            55  130/  8/  9   N/A
$$

ABBREVIATIONS USED IN REMARKS
   TC - TEMPERATURE IN CELSIUS
  WCI - WIND CHILL INDEX
   HX - HEAT INDEX
  VSB - VISIBILITY
$$



USA.gov is the U.S. government's official web portal to all federal, state and local government web resources and services.